Precipitable_Water
0.30 0.24 0.19 0.19 0.21 0.20 0.19 0.18 0.19 0.24 0.29 0.25 0.25 0.26 0.31 0.35 0.37 0.37 0.41 0.44 0.48 0.51 0.57 0.60 0.59 0.58 0.47 0.45 0.42 0.40 0.39 0.36 0.38 0.60 0.74 0.91 1.09 1.06 1.05 1.08 1.10 1.09 1.06 1.06
0.25 0.20 0.25 0.30 0.32 0.29 0.28 0.26 0.26 0.30 0.34 0.32 0.31 0.29 0.35 0.37 0.37 0.43 0.45 0.50 0.54 0.57 0.62 0.66 0.67 0.67 0.61 0.56 0.52 0.45 0.43 0.43 0.38 0.45 0.73 0.82 1.05 1.06 1.06 1.07 1.06 1.06 1.05 1.04
0.26 0.27 0.33 0.32 0.33 0.30 0.31 0.29 0.29 0.30 0.35 0.37 0.33 0.30 0.32 0.37 0.42 0.48 0.50 0.56 0.60 0.61 0.60 0.65 0.66 0.64 0.66 0.65 0.58 0.50 0.47 0.47 0.43 0.39 0.61 0.87 1.05 1.15 1.04 1.03 1.01 1.02 1.05 1.04
0.30 0.36 0.34 0.35 0.34 0.36 0.29 0.38 0.37 0.35 0.32 0.25 0.36 0.22 0.31 0.40 0.42 0.48 0.49 0.53 0.59 0.62 0.65 0.67 0.68 0.70 0.72 0.74 0.77 0.64 0.55 0.51 0.46 0.44 0.51 0.81 0.91 0.94 1.00 0.98 0.97 0.95 0.98 0.95
0.30 0.34 0.35 0.35 0.37 0.42 0.36 0.44 0.40 0.39 0.35 0.33 0.35 0.31 0.34 0.45 0.41 0.43 0.49 0.54 0.59 0.63 0.66 0.67 0.67 0.72 0.75 0.76 0.74 0.66 0.69 0.58 0.50 0.45 0.55 0.79 0.90 1.00 0.98 0.95 0.92 0.89 0.86 0.91
0.38 0.48 0.43 0.41 0.44 0.45 0.47 0.43 0.43 0.42 0.38 0.28 0.36 0.35 0.34 0.41 0.44 0.46 0.51 0.55 0.60 0.63 0.65 0.68 0.71 0.73 0.74 0.74 0.72 0.68 0.63 0.63 0.64 0.53 0.60 0.76 0.89 0.96 0.90 0.87 0.81 0.83 0.88 0.92
0.36 0.37 0.42 0.45 0.39 0.47 0.48 0.39 0.31 0.28 0.29 0.28 0.39 0.36 0.37 0.48 0.51 0.50 0.51 0.57 0.59 0.62 0.63 0.65 0.66 0.68 0.69 0.71 0.69 0.65 0.62 0.61 0.68 0.65 0.65 0.73 0.84 0.93 0.85 0.86 0.87 0.87 0.87 0.87
0.26 0.23 0.33 0.42 0.40 0.38 0.42 0.40 0.30 0.22 0.24 0.27 0.38 0.30 0.37 0.51 0.54 0.57 0.59 0.61 0.56 0.53 0.53 0.55 0.61 0.65 0.66 0.68 0.70 0.63 0.63 0.63 0.65 0.72 0.82 0.82 0.94 0.96 0.94 0.89 0.83 0.84 0.84 0.85
0.26 0.26 0.37 0.40 0.43 0.45 0.40 0.36 0.45 0.33 0.35 0.29 0.31 0.33 0.42 0.47 0.48 0.54 0.50 0.49 0.41 0.41 0.42 0.43 0.51 0.63 0.65 0.61 0.64 0.61 0.61 0.63 0.72 0.76 0.75 0.77 0.86 0.88 0.81 0.85 0.81 0.85 0.84 1.11
0.33 0.21 0.32 0.36 0.41 0.44 0.38 0.44 0.31 0.35 0.22 0.21 0.26 0.25 0.22 0.33 0.39 0.45 0.39 0.38 0.37 0.34 0.35 0.37 0.49 0.66 0.69 0.63 0.64 0.66 0.67 0.68 0.72 0.73 0.73 0.73 0.77 0.78 0.82 0.87 0.83 0.80 0.90 1.07
0.33 0.28 0.26 0.31 0.28 0.28 0.30 0.28 0.31 0.33 0.31 0.23 0.19 0.20 0.35 0.27 0.34 0.37 0.39 0.36 0.29 0.29 0.31 0.37 0.49 0.56 0.64 0.72 0.72 0.73 0.71 0.66 0.68 0.69 0.69 0.69 0.72 0.74 0.76 0.80 0.88 1.03 1.13 1.09
0.31 0.24 0.16 0.17 0.26 0.28 0.24 0.21 0.21 0.18 0.22 0.24 0.22 0.16 0.35 0.30 0.33 0.36 0.36 0.34 0.27 0.29 0.35 0.34 0.37 0.40 0.41 0.48 0.64 0.62 0.69 0.76 0.72 0.85 0.86 0.88 0.91 0.93 0.98 1.00 1.04 1.00 0.96 0.96
0.29 0.23 0.14 0.16 0.19 0.24 0.19 0.22 0.23 0.22 0.23 0.17 0.17 0.16 0.31 0.30 0.31 0.33 0.33 0.32 0.28 0.27 0.33 0.33 0.29 0.27 0.29 0.30 0.34 0.40 0.44 0.53 0.55 0.73 0.72 0.74 0.79 0.77 0.68 0.68 0.61 0.62 0.58 0.51
0.31 0.23 0.18 0.11 0.13 0.18 0.16 0.18 0.22 0.21 0.15 0.15 0.16 0.14 0.20 0.23 0.25 0.28 0.31 0.31 0.28 0.25 0.26 0.28 0.22 0.22 0.23 0.23 0.24 0.28 0.32 0.33 0.33 0.34 0.32 0.31 0.31 0.31 0.31 0.30 0.27 0.25 0.27 0.26
0.30 0.18 0.20 0.20 0.19 0.18 0.17 0.16 0.17 0.17 0.17 0.13 0.13 0.13 0.16 0.20 0.22 0.26 0.29 0.30 0.27 0.24 0.24 0.25 0.23 0.20 0.21 0.20 0.21 0.23 0.24 0.24 0.25 0.24 0.23 0.22 0.22 0.23 0.22 0.21 0.20 0.20 0.20 0.20
0.30 0.18 0.20 0.16 0.18 0.17 0.14 0.15 0.16 0.17 0.16 0.16 0.16 0.13 0.18 0.20 0.22 0.23 0.27 0.27 0.25 0.24 0.24 0.26 0.25 0.21 0.21 0.20 0.20 0.21 0.22 0.23 0.23 0.22 0.21 0.21 0.21 0.21 0.21 0.21 0.21 0.21 0.21 0.21
0.25 0.23 0.20 0.14 0.19 0.18 0.13 0.13 0.15 0.16 0.17 0.16 0.14 0.15 0.20 0.18 0.20 0.22 0.25 0.27 0.26 0.26 0.25 0.25 0.25 0.22 0.21 0.21 0.21 0.21 0.22 0.23 0.22 0.21 0.20 0.19 0.19 0.19 0.20 0.21 0.21 0.21 0.21 0.22
0.24 0.25 0.23 0.17 0.17 0.12 0.17 0.19 0.18 0.17 0.17 0.19 0.18 0.19 0.22 0.22 0.24 0.26 0.29 0.29 0.29 0.29 0.28 0.28 0.27 0.25 0.23 0.23 0.23 0.23 0.23 0.22 0.21 0.20 0.19 0.19 0.18 0.19 0.20 0.21 0.22 0.23 0.24 0.24
0.30 0.25 0.19 0.16 0.14 0.13 0.14 0.16 0.17 0.16 0.16 0.19 0.20 0.22 0.22 0.23 0.27 0.23 0.29 0.31 0.31 0.31 0.31 0.30 0.29 0.27 0.24 0.23 0.25 0.25 0.24 0.23 0.22 0.21 0.20 0.20 0.20 0.20 0.21 0.21 0.22 0.23 0.23 0.24
0.29 0.29 0.21 0.17 0.12 0.08 0.11 0.15 0.20 0.20 0.13 0.17 0.19 0.21 0.22 0.26 0.19 0.23 0.34 0.32 0.33 0.35 0.34 0.31 0.30 0.27 0.24 0.24 0.25 0.24 0.24 0.24 0.23 0.23 0.22 0.22 0.22 0.22 0.21 0.22 0.22 0.23 0.24 0.24
0.18 0.20 0.15 0.16 0.14 0.13 0.16 0.17 0.20 0.09 0.11 0.15 0.19 0.21 0.22 0.22 0.25 0.28 0.31 0.33 0.34 0.35 0.35 0.36 0.33 0.29 0.27 0.28 0.28 0.27 0.27 0.26 0.28 0.27 0.26 0.25 0.24 0.23 0.23 0.23 0.24 0.24 0.23 0.23
0.13 0.13 0.14 0.16 0.13 0.08 0.18 0.17 0.10 0.14 0.15 0.19 0.22 0.23 0.23 0.25 0.26 0.29 0.31 0.32 0.34 0.32 0.32 0.33 0.31 0.30 0.32 0.33 0.32 0.31 0.31 0.34 0.34 0.33 0.31 0.29 0.26 0.25 0.24 0.25 0.25 0.26 0.25 0.24
0.17 0.18 0.16 0.17 0.15 0.21 0.20 0.18 0.21 0.21 0.20 0.22 0.23 0.24 0.26 0.25 0.24 0.26 0.27 0.30 0.33 0.33 0.31 0.31 0.29 0.28 0.30 0.30 0.30 0.29 0.32 0.35 0.35 0.34 0.33 0.33 0.33 0.34 0.35 0.33 0.30 0.28 0.27 0.26
0.24 0.25 0.20 0.20 0.21 0.22 0.24 0.27 0.27 0.27 0.27 0.27 0.26 0.27 0.28 0.26 0.27 0.26 0.29 0.30 0.31 0.33 0.32 0.32 0.30 0.28 0.29 0.30 0.29 0.28 0.29 0.30 0.29 0.28 0.29 0.29 0.30 0.32 0.33 0.33 0.33 0.33 0.33 0.34
0.21 0.23 0.20 0.20 0.22 0.25 0.26 0.28 0.31 0.31 0.32 0.31 0.31 0.31 0.30 0.32 0.30 0.30 0.32 0.34 0.35 0.35 0.37 0.36 0.33 0.30 0.30 0.31 0.29 0.29 0.27 0.26 0.24 0.24 0.23 0.23 0.23 0.24 0.24 0.27 0.28 0.30 0.36 0.39
0.26 0.20 0.19 0.17 0.24 0.24 0.25 0.29 0.32 0.31 0.32 0.35 0.34 0.34 0.36 0.37 0.36 0.37 0.36 0.37 0.38 0.37 0.37 0.37 0.36 0.33 0.32 0.32 0.31 0.29 0.27 0.25 0.23 0.22 0.22 0.23 0.23 0.23 0.23 0.24 0.25 0.32 0.35 0.37
Wind_Speed
8 8 9 10 12 13 16 20 23 25 24 26 27 33 33 32 31 28 28 30 34 37 40 42 42 43 44 44 45 47 48 51 51 49 49 47 44 42 41 39 39 38 37 36
5 4 7 9 11 14 15 19 20 18 19 25 26 31 29 20 16 18 22 25 27 30 33 35 36 37 39 42 43 45 47 48 50 51 49 47 45 43 41 39 38 38 38 38
5 6 8 10 12 13 15 16 17 17 21 19 17 15 7 10 15 17 23 24 25 25 25 24 25 29 34 37 40 41 44 46 47 50 49 46 44 40 40 38 37 37 37 38
6 6 7 9 11 11 11 8 10 12 14 10 14 12 15 10 16 20 25 24 24 23 23 23 22 24 26 29 32 36 41 43 45 46 48 47 44 42 40 38 36 35 35 37
4 4 6 7 6 5 6 8 11 12 11 13 7 10 10 11 17 24 24 22 20 22 22 23 22 23 24 24 26 29 32 38 41 42 45 45 42 39 38 37 35 35 36 37
2 2 2 3 5 5 9 11 8 4 5 5 5 7 10 13 18 21 20 18 17 19 20 21 20 20 21 19 19 19 23 29 34 37 42 42 39 37 35 35 34 33 33 34
2 0 2 2 5 3 6 7 3 3 3 6 6 9 10 15 17 16 16 14 14 16 17 19 18 17 18 16 14 9 11 20 25 29 34 38 36 32 32 32 31 30 30 30
3 0 1 1 3 4 5 6 6 6 8 11 4 8 11 13 13 15 15 12 13 16 17 19 19 19 17 13 9 3 4 9 14 19 24 28 27 27 27 27 28 27 27 28
3 1 1 2 3 3 5 5 7 6 6 6 6 8 10 11 11 12 14 15 15 17 18 19 20 20 17 14 11 7 7 7 9 13 17 20 20 21 21 22 22 22 22 21
3 4 2 2 3 4 4 8 5 4 7 8 7 9 9 8 9 10 13 14 16 18 19 18 19 22 19 18 15 12 10 8 7 9 12 14 16 16 17 16 17 17 18 19
4 2 2 3 2 3 2 4 4 6 6 7 10 9 7 5 6 8 10 13 15 18 19 17 16 18 22 20 18 18 14 10 8 7 7 8 11 11 12 12 12 14 12 13
5 4 4 3 3 4 5 5 5 6 5 7 8 7 5 4 5 6 9 10 12 15 17 18 18 17 18 17 16 14 14 15 13 10 9 8 10 7 6 9 9 10 11 11
5 4 6 3 4 4 4 3 5 6 7 5 5 5 6 5 6 7 7 8 10 12 13 14 15 16 16 17 17 16 12 13 12 11 8 7 5 2 2 3 2 4 5 5
5 5 5 6 9 9 9 7 5 5 5 6 7 11 10 6 7 7 6 6 7 8 10 11 12 13 14 14 14 14 13 12 11 10 9 7 5 3 1 2 4 5 7 8
5 7 10 13 16 16 15 15 12 11 10 7 5 9 10 11 10 7 6 6 5 7 7 8 9 10 10 11 11 10 10 9 8 7 6 5 4 4 5 6 8 9 10 12
5 7 13 14 12 9 13 13 13 14 14 15 16 18 16 12 10 9 8 7 7 7 7 7 7 8 8 8 8 8 7 7 6 6 6 6 7 8 8 10 11 12 13 14
7 8 10 7 10 15 12 10 10 7 9 11 13 12 12 11 10 11 11 10 10 10 9 9 8 8 8 8 9 9 8 8 9 9 9 10 11 11 12 13 14 15 16 18
10 8 8 10 13 5 6 6 7 9 10 11 12 12 12 14 14 13 13 13 12 11 11 10 10 10 10 10 10 10 10 11 12 12 13 14 14 15 16 17 18 19 20 21
13 12 10 9 10 15 11 6 6 6 9 9 10 11 12 14 14 16 15 14 13 12 12 12 11 12 11 12 12 13 13 14 15 15 16 17 18 18 19 20 21 22 23 24
11 14 12 10 11 10 7 7 8 9 10 5 6 10 14 13 13 13 11 12 13 13 12 12 12 12 13 13 14 14 15 16 17 18 19 20 21 22 23 24 24 25 26 27
11 13 17 16 15 16 13 10 9 10 9 9 12 15 14 14 16 16 16 15 15 14 14 14 14 14 15 15 16 17 18 18 19 20 21 23 23 25 25 26 27 28 28 29
12 11 12 12 14 16 7 8 12 12 13 14 16 18 20 22 22 20 19 18 17 16 16 17 17 17 17 18 19 20 21 21 22 23 24 25 26 26 27 28 29 30 30 31
16 16 13 14 14 13 15 17 17 17 18 19 21 22 20 18 17 17 17 16 16 16 16 16 17 18 19 20 21 22 23 23 24 25 26 27 28 29 30 31 32 32 33 33
17 20 18 17 18 21 22 22 22 21 21 20 18 18 18 19 18 18 16 17 17 17 18 18 18 19 19 19 20 21 22 23 25 26 28 29 30 30 31 32 33 34 35 36
21 16 20 23 27 27 25 23 22 21 20 18 18 19 18 18 19 19 20 20 20 20 20 20 20 20 20 20 21 22 22 23 24 25 27 28 29 30 32 33 34 35 37 38
27 27 24 23 24 21 23 20 19 18 20 21 22 22 21 21 22 23 23 23 22 22 21 22 22 21 21 22 22 23 23 25 26 28 29 30 31 32 33 34 36 37 38 39
Wind_Direction
271 273 278 279 283 284 285 285 286 287 291 290 286 287 287 288 285 285 290 293 291 287 283 277 273 269 266 265 262 258 253 247 244 241 240 238 240 240 241 243 245 247 248 252
254 274 284 286 287 287 286 291 295 293 295 297 293 293 289 286 281 292 303 305 306 303 295 284 275 271 267 266 263 258 251 247 241 238 237 237 238 238 240 242 245 247 250 252
287 289 286 290 293 293 292 296 304 303 309 297 305 301 296 285 286 301 309 308 307 314 312 302 288 280 276 270 264 258 251 245 240 236 234 234 234 236 237 241 245 249 251 254
292 292 290 296 298 305 310 322 312 310 317 309 325 303 308 299 304 311 310 307 305 310 312 309 302 294 289 282 273 261 251 242 237 234 230 231 232 235 239 242 247 250 253 256
297 298 304 309 327 323 317 324 312 301 305 310 319 306 306 326 315 317 316 312 308 313 314 313 305 304 300 292 281 268 251 238 233 231 228 227 231 235 239 243 248 252 255 258
306 345 333 351 340 314 318 326 324 320 327 322 328 335 326 333 326 325 327 324 322 322 324 322 318 312 309 307 297 273 248 234 228 227 225 224 228 233 238 243 247 252 257 261
1 191 10 334 338 9 5 351 3 358 356 340 342 336 340 345 348 344 341 340 342 348 349 348 343 334 329 318 315 289 242 222 224 223 221 221 226 233 237 241 246 251 257 262
2 307 276 113 0 359 7 12 5 339 348 336 350 349 352 353 359 359 359 1 359 360 359 359 359 358 351 350 348 316 210 200 207 209 210 212 220 231 235 241 246 250 257 261
357 345 338 284 331 343 14 358 356 339 321 344 356 353 356 359 7 9 21 16 13 8 8 9 12 12 21 24 39 75 107 140 168 183 196 205 217 227 233 238 242 246 254 255
7 316 311 348 315 282 311 349 347 4 353 346 340 344 348 0 6 6 6 11 15 11 14 19 26 34 39 48 58 71 89 110 143 172 194 205 215 223 229 233 238 246 250 260
3 15 359 328 266 329 331 334 331 337 325 341 341 356 3 4 14 6 5 11 16 16 22 31 41 45 48 54 61 69 75 84 101 135 163 190 202 209 216 224 236 244 243 266
42 18 356 340 28 341 319 316 329 343 350 319 331 342 22 12 4 6 9 17 15 21 32 41 47 44 45 53 53 62 70 74 87 102 111 130 147 162 211 222 243 244 251 266
27 21 354 51 30 13 339 312 302 323 339 309 334 4 10 357 354 354 355 10 18 23 32 37 40 42 45 48 51 60 70 68 75 76 96 100 133 156 170 184 234 258 267 256
344 320 296 308 319 327 309 297 292 291 327 322 282 303 322 335 331 339 346 357 6 16 21 24 27 33 37 43 50 56 62 66 68 72 77 80 83 84 75 279 285 286 283 281
318 311 302 296 295 294 289 284 274 260 259 294 324 316 315 321 325 319 327 336 345 353 359 5 13 22 26 30 35 39 44 46 47 46 40 28 7 338 314 302 296 293 290 289
311 316 320 314 305 302 290 280 270 265 265 263 278 291 302 311 302 303 304 306 309 318 328 338 346 354 360 6 9 12 12 10 6 359 352 340 328 317 309 303 300 297 296 295
298 315 329 318 331 319 303 282 251 268 272 264 268 287 298 309 305 298 297 295 295 299 303 307 314 323 330 334 337 338 334 332 330 327 323 319 315 311 307 304 302 300 299 297
283 296 304 312 322 317 343 333 325 261 285 268 280 287 296 300 302 297 295 291 290 291 294 297 301 305 310 313 315 318 317 314 312 312 311 310 308 305 304 302 301 299 298 298
263 272 295 301 307 298 306 298 287 293 312 284 275 297 306 308 306 295 286 286 287 288 290 292 294 297 301 303 306 307 308 308 306 305 305 304 302 301 300 300 300 299 299 298
265 261 274 290 296 297 318 299 301 305 295 282 296 309 313 312 308 314 313 294 286 286 289 291 294 296 297 299 301 302 303 304 304 303 302 302 300 299 298 298 298 298 297 297
272 268 260 268 281 286 290 282 285 291 302 281 293 304 307 303 298 303 300 295 288 285 285 287 289 291 293 296 298 301 302 302 303 304 303 302 300 299 298 297 297 297 297 297
263 269 267 265 273 282 272 277 280 299 297 293 295 300 299 298 297 294 293 289 286 283 282 282 285 288 290 293 295 298 299 301 302 303 303 303 302 301 300 299 299 298 297 297
273 263 277 260 273 285 272 278 278 285 286 290 294 297 298 297 297 301 292 287 283 281 283 284 286 288 290 292 294 296 298 300 301 302 303 303 303 302 301 299 299 298 297 297
266 266 271 279 277 273 273 275 277 279 282 287 290 294 295 295 296 296 296 289 285 284 282 283 283 286 289 292 294 298 301 303 303 303 303 304 305 305 304 302 301 299 298 298
272 269 271 269 278 278 276 274 276 278 279 281 285 286 287 288 290 290 293 291 288 284 281 281 281 284 288 290 293 296 298 302 305 306 307 308 309 309 308 306 305 303 301 300
269 266 265 271 275 272 276 278 277 275 275 279 281 286 283 287 291 291 291 291 288 285 283 279 279 281 285 288 291 293 297 300 301 303 305 306 307 307 306 306 307 306 304 304